Weather Roundup
Issued by NWS Chicago, IL

Home | Current Version | Previous Version | Text Only | Print | Product List | Glossary On
Versions: 1 2 3 4 5 6 7 8 9 10 11 12 13 14 15 16 17 18 19 20 21 22 23 24 25 26 27 28 29 30 31 32 33 34 35 36 37 38 39 40 41 42 43 44 45 46 47 48 49 50
000
NZUS59 KLOT 140008
HRRLOT

CHICAGO AREA WEATHER ROUNDUP
NATIONAL WEATHER SERVICE CHICAGO/ROMEOVILLE IL
600 PM CST SAT FEB 13 2016

NOTE: "FAIR" INDICATES FEW OR NO CLOUDS BELOW 12,000 FEET WITH NO
SIGNIFICANT WEATHER AND/OR OBSTRUCTIONS TO VISIBILITY.

* THESE STATIONS ARE NOT UNDER NWS QUALITY CONTROL. THEY ALSO MAY NOT
  REPORT WEATHER SUCH AS PRECIPITATION OR FOG.

ILZ005-006-012>014-019>023-140100-
NORTHEAST ILLINOIS

CITY           SKY/WX    TMP DP  RH WIND       PRES   REMARKS
OHARE          PTCLDY    13  -5  44 NW5       30.49F WCI   5
6HR MIN TEMP:  12; 6HR MAX TEMP:  17;

MIDWAY         PTCLDY    16  -7  35 NW6       30.51F WCI   7
6HR MIN TEMP:  14; 6HR MAX TEMP:  19;

AURORA         CLEAR     14   1  56 W3        30.51S
6HR MIN TEMP:  13; 6HR MAX TEMP:  18;

LANSING*       CLEAR     16  -8  35 CALM      30.51F
JOLIET*        CLEAR     17  -3  43 CALM      30.52S
WAUKEGAN       CLEAR     10  -6  48 CALM      30.49F
6HR MIN TEMP:  10; 6HR MAX TEMP:  14;

DUPAGE AIRPORT CLEAR     11  -5  48 N3        30.49F
6HR MIN TEMP:  10; 6HR MAX TEMP:  17;

WHEELING       CLEAR     12  -5  46 N6        30.52F WCI   3
6HR MIN TEMP:  12; 6HR MAX TEMP:  17;

KANKAKEE*      MOCLDY    16  -1  45 CALM      30.52S
MORRIS*        PTCLDY    15  -1  49 CALM      30.50R
LEWIS AIRPORT* CLEAR     14  -4  45 W3        30.51S
$$

WIZ051-052-058>065-066-070>072-140100-
SOUTHEAST WISCONSIN

CITY           SKY/WX    TMP DP  RH WIND       PRES   REMARKS
MILWAUKEE      PTCLDY    10  -8  44 NW9       30.51S WCI  -3
6HR MIN TEMP:  10; 6HR MAX TEMP:  13;

KENOSHA*       CLEAR     11  -5  48 NW5       30.50F WCI   3
RACINE*        CLEAR     10  -8  44 NW5       30.52F WCI   2
BURLINGTON     CLOUDY     8  -8  49 CALM      30.49F
WAUKESHA       CLEAR      7  -8  51 NW6       30.49F WCI  -3
WEST BEND      CLEAR      7  -8  51 CALM      30.49R
$$

INZ001>003-010>013-019-020-140100-
NORTHWEST INDIANA

CITY           SKY/WX    TMP DP  RH WIND       PRES   REMARKS
GARY*          PTCLDY    14   0  52 CALM      30.52F
MICHIGAN CITY* NOT AVBL
RENSSELAER*    NOT AVBL
VALPARAISO     CLEAR      8  -3  61 E3        30.51S
$$

LMZ740>746-140100-
SOUTHERN LAKE MICHIGAN

STATION/POSITION TIME  SKY/WX   TEMP WIND        PRES    VSBY
                                AIR  DIR/SP/G
                 (UTC)          (F)  (DEG/KT/KT) (MB)    (MI)
HARRISON CRIB    2300            17  310/  4/  6   N/A
BURNHAM HARBOR   0000            17  280/  4/  7   N/A
CALUMET HARBOR   2300            16              1032.5F
BURNS HARBOR     2300            15  340/  3/  6 1033.9F
MICHIGAN CITY    2300            14  300/  9/ 11   N/A
$$

ABBREVIATIONS USED IN REMARKS
   TC - TEMPERATURE IN CELSIUS
  WCI - WIND CHILL INDEX
   HX - HEAT INDEX
  VSB - VISIBILITY
$$



USA.gov is the U.S. government's official web portal to all federal, state and local government web resources and services.